Location: Diedersen
(52.0974°N, 9.4647°E)
Time: 20:13:23
(UTC+00:00)

Daily predictions for brighter satellites

Satellite Brightness Start Highest point End
(mag) Time Altitude Azimuth Time Altitude Azimuth Time Altitude Azimuth
CZ-4C R/B 3.9 20:29:53 10° N 20:34:01 67° WNW 20:38:03 10° SSW
Cosmos 1655 Rocket 4.3 20:29:36 10° SSW 20:36:00 77° WNW 20:42:26 10° N
BlueWalker 3 2.0 20:33:07 10° SW 20:36:45 51° SSE 20:40:24 10° ENE
Cosmos 968 Rocket 3.8 20:32:39 10° SSW 20:37:49 72° WNW 20:43:04 10° NNE
Okean 2 3.5 20:35:43 10° S 20:39:38 54° E 20:43:36 10° NNE
Cosmos 2227 Rocket 4.2 20:39:49 10° E 20:40:27 10° E 20:41:05 10° E
Cosmos 1733 Rocket 4.1 20:37:11 10° NNW 20:41:25 46° W 20:45:38 10° SSW
Cosmos 1833 4.4 20:35:50 10° SW 20:41:28 78° WNW 20:47:08 10° NNE
Cosmos 2322 3.9 20:38:54 10° NNW 20:44:35 76° WSW 20:50:13 10° SSE
Cosmos 1980 4.3 20:40:26 10° NNW 20:45:58 50° NE 20:51:29 10° SE
Resurs 01 Rocket 4.5 20:45:41 10° WSW 20:47:17 12° W 20:48:52 10° WNW
USA 234 3.8 20:42:26 10° ENE 20:48:17 34° SE 20:54:06 10° SSW
Cosmos 2322 Rocket 4.3 20:44:29 10° NW 20:48:36 21° W 20:52:42 10° SSW
EXPRESS MD2 2.4 20:55:42 10° W 20:58:15 43° S 21:00:19 10° ESE
Cosmos 2297 Rocket 3.3 20:54:16 10° SSE 20:58:52 26° ESE 21:03:28 10° NE
Cosmos 1908 Rocket 3.6 20:58:05 10° NNW 21:02:26 79° W 21:06:44 10° S
MOS 1 Rocket 4.2 20:59:57 10° S 21:05:10 55° W 21:10:11 10° NNW
Cosmos 2219 Rocket 3.4 21:00:19 10° NW 21:05:24 35° WSW 21:10:28 10° S
Cosmos 1782 Rocket 3.7 21:01:54 10° N 21:06:13 64° ENE 21:10:15 12° SSE
ATLAS CENTAUR R/B 3.8 21:07:07 10° W 21:10:05 24° NNW 21:13:10 10° NNE
ERS-1 Rocket 4.2 21:05:31 10° SSW 21:10:08 36° W 21:14:47 10° NNW
USA 281 3.9 21:04:31 10° ESE 21:10:48 50° NE 21:17:07 10° NNW
Cosmos 371 Rocket 3.9 21:06:51 10° S 21:11:15 37° ESE 21:15:42 10° NE
Cosmos 773 Rocket 4.1 21:07:08 10° NNW 21:12:18 68° ENE 21:17:03 12° SE
Cosmos 1300 Rocket 3.7 21:09:00 10° N 21:13:18 63° ENE 21:17:09 13° SSE
Terra 3.0 21:09:04 10° SSW 21:13:26 37° W 21:17:49 10° NNW
MetOp-A 4.1 21:10:24 10° SSE 21:15:37 87° WSW 21:20:48 10° NNW
Meteor 1-4 Rocket 4.3 21:19:15 10° SW 21:21:50 26° WNW 21:24:28 10° N
Spot 1 4.3 21:17:30 10° NNE 21:22:12 79° ESE 21:27:07 10° SSW
GP-B 3.2 21:19:04 10° N 21:23:29 65° E 21:27:24 13° S
Cosmos 1703 4.3 21:21:01 14° SE 21:23:30 28° E 21:26:41 10° NNE
ARIANE 5 R/B 3.2 21:19:54 13° SE 21:23:37 46° ENE 21:27:49 10° N
NOSS 0 Rocket 4.2 21:23:43 10° NW 21:29:54 64° WSW 21:35:24 13° SSE
Cosmos 2084 Rocket 3.9 21:27:04 10° SSW 21:31:02 38° SE 21:34:53 10° ENE
Cosmos 1953 3.7 21:28:30 10° NNW 21:31:54 31° W 21:35:16 10° SSW
COSMOS 2428 3.5 21:26:40 10° NW 21:32:02 44° WSW 21:37:11 11° S
Cosmos 1455 3.6 21:30:30 10° NNW 21:33:35 29° W 21:36:39 10° SSW
CZ-4C R/B 2.0 21:31:07 10° SSW 21:35:37 60° SE 21:41:20 10° NE
SJ 16-02 3.5 21:32:15 10° WSW 21:35:59 28° NW 21:39:46 10° N
BREEZE-M DEB (TANK) 3.9 21:19:28 10° W 21:36:29 75° S 21:40:43 10° E
NOSS 8 (A) 4.2 21:34:39 10° NW 21:37:33 76° NE 21:40:14 15° SE
BREEZE-M DEB (TANK) 4.0 21:39:50 18° SSE 21:40:34 21° SE 21:43:20 10° E
Cosmos 1745 Rocket 4.1 21:34:22 10° S 21:40:44 83° E 21:47:09 10° NNE
Nadezhda 1 Rocket 4.2 21:36:28 10° NNW 21:42:43 70° W 21:48:28 12° S
Cosmos 304 Rocket 3.9 21:38:33 11° S 21:43:06 58° ESE 21:47:48 10° NNE
Cosmos 1703 Rocket 4.4 21:42:54 10° SSW 21:47:14 50° WNW 21:51:35 10° N
Cosmos 1242 Rocket 3.9 21:45:56 10° SW 21:48:17 26° WNW 21:50:39 10° N
Cosmos 1503 Rocket 4.2 21:45:02 11° S 21:50:00 58° ESE 21:55:11 10° NNE
Cosmos 2151 Rocket 4.3 21:47:06 10° N 21:51:18 42° ENE 21:54:29 16° SE
Cosmos 1825 3.8 21:49:46 13° ESE 21:51:21 17° E 21:53:42 10° NE
Cosmos 2098 Rocket 4.1 21:48:02 10° N 21:54:38 71° ENE 21:59:30 16° SSE
Okean 2 Rocket 3.8 21:51:58 10° N 21:56:17 44° ENE 21:59:32 16° SE
Landsat 5 4.3 21:53:03 10° N 21:57:01 49° WNW 22:01:06 10° SW
SeaSat 1 4.1 21:53:07 10° SSW 21:57:01 23° WSW 22:00:57 10° NW
MINOTAUR 4 R/B 4.2 21:56:38 10° NNE 21:59:23 38° E 22:00:41 24° SSE
H-2A R/B 2.8 21:56:48 17° SE 21:59:54 57° ENE 22:04:01 10° N
CZ-2C R/B 3.6 21:57:09 10° NNE 22:01:34 72° ESE 22:05:09 16° S
COSMOS 2455 2.9 21:55:32 10° SW 22:01:35 85° NW 22:07:40 10° NE
Cosmos 1892 3.8 22:01:05 18° SE 22:02:49 26° E 22:05:48 10° NNE
Cosmos 1408 2.8 22:02:06 14° SSW 22:04:31 50° WNW 22:07:28 10° N
Cosmos 332 Rocket 4.3 22:03:50 18° S 22:07:12 45° ESE 22:11:52 10° NE
Cosmos 405 Rocket 2.6 22:03:43 10° NNW 22:07:31 87° ENE 22:09:55 21° SSE
ALOS 2 3.3 22:04:51 16° SE 22:08:05 46° ENE 22:12:18 10° N
SL-4 R/B 4.0 22:07:26 10° WSW 22:09:30 14° SW 22:10:36 13° SSW
Cosmos 2181 Rocket 4.1 22:03:24 10° N 22:09:35 70° ENE 22:14:19 18° SSE
SL-16 R/B 2.5 22:07:52 10° NNW 22:13:35 66° NE 22:18:25 14° SE
BlueWalker 3 2.0 22:11:07 10° W 22:14:52 76° N 22:18:37 10° E
Cosmos 1486 Rocket 4.4 22:10:25 10° SW 22:15:34 64° WNW 22:20:47 10° NNE
Cosmos 2237 Rocket 2.8 22:10:17 10° NW 22:15:42 48° WSW 22:19:45 17° S
Meteor 2-5 Rocket 3.8 22:11:12 15° S 22:16:10 80° E 22:21:57 10° NNE
CENTAUR R/B 2.9 22:11:56 15° S 22:16:23 44° ESE 22:23:00 10° NE
Spot 4 3.9 22:17:54 19° SSE 22:21:19 83° ENE 22:26:12 10° NNW
Cosmos 2227 Rocket 2.4 22:18:49 16° S 22:23:15 57° ESE 22:28:49 10° NE
Cosmos 2221 Rocket 3.9 22:25:50 21° SSE 22:28:34 53° E 22:32:52 10° NNE
H-2A R/B 3.8 22:28:28 10° NE 22:31:23 18° E 22:33:24 14° SE
USA 234 3.2 22:25:17 10° ENE 22:31:53 83° SSE 22:38:27 10° WSW
Sich 1 Rocket 3.5 22:27:45 10° N 22:32:11 89° W 22:34:57 22° S
Cosmos 1354 Rocket 4.1 22:31:07 12° SSW 22:36:04 84° WNW 22:41:24 10° NNE
Okean 1 Rocket 3.1 22:33:49 10° N 22:38:12 71° ENE 22:40:58 22° SSE
Cosmos 2297 Rocket 2.6 22:36:51 10° SW 22:42:28 66° NW 22:48:07 10° NNE
Cosmos 1461 4.0 22:43:12 21° SE 22:44:13 23° ESE 22:47:21 10° ENE
Nadezhda 3 Rocket 4.2 22:41:05 10° N 22:47:19 65° ENE 22:51:56 18° SSE
Cosmos 990 Rocket 4.1 22:45:54 20° S 22:49:19 62° ESE 22:54:24 10° NNE
USA 281 3.8 22:50:46 18° S 22:55:22 46° WSW 23:01:43 10° NW
Cosmos 2219 3.4 22:51:46 20° S 22:55:34 57° ESE 23:01:04 10° NE
Cosmos 1680 Rocket 4.2 22:51:35 10° NNW 22:56:39 49° ENE 23:01:20 12° SE
Meteor 1-24 Rocket 4.3 22:52:46 12° SSW 22:57:58 53° WNW 23:03:21 10° N
ARIANE 5 R/B 4.3 22:57:21 13° SW 23:00:14 24° W 23:03:48 10° NW
Cosmos 1975 Rocket 4.3 22:59:41 18° SE 23:02:10 30° E 23:06:03 10° NNE
Cosmos 1025 Rocket 3.3 23:00:15 24° SSE 23:02:39 54° E 23:06:52 10° NNE
Orbus 7S? 2.8 23:00:43 10° WNW 23:03:27 67° NNE 23:06:25 10° ESE
Cosmos 2263 Rocket 2.6 23:01:08 21° S 23:04:33 48° ESE 23:09:53 10° NE
Cosmos 2184 Rocket 4.1 22:59:57 20° S 23:04:38 84° E 23:11:04 10° NNE
Cosmos 1455 Rocket 3.3 23:04:01 10° N 23:08:28 64° ENE 23:11:17 22° SSE
Cosmos 2084 Rocket 4.5 23:06:01 10° WSW 23:10:06 45° NW 23:14:03 10° NE
Cosmos 1378 Rocket 4.3 23:10:39 16° SW 23:13:54 46° WNW 23:18:10 10° N
Cosmos 1674 Rocket 4.2 23:14:09 18° SW 23:17:12 50° WNW 23:21:25 10° N
Cosmos 292 Rocket 3.8 23:17:32 23° S 23:20:31 70° ESE 23:25:21 10° NNE
NOSS 3-2 (A) 3.2 23:18:38 17° SSW 23:22:49 70° SE 23:29:09 10° NE
Cosmos 2154 Rocket 4.0 23:18:32 20° S 23:23:05 88° W 23:29:28 10° N
CZ-4C R/B 3.5 23:19:32 10° W 23:24:18 42° NNW 23:30:22 10° NE
Cosmos 1825 3.0 23:23:13 19° SW 23:25:16 37° WNW 23:28:30 10° N
PSLV R/B 3.4 23:24:06 10° NNE 23:28:19 86° W 23:30:49 24° SSW
Cosmos 1818 3.9 23:27:44 10° NW 23:33:03 51° WSW 23:36:27 21° S
NOSS 3-2 (C) 3.7 23:30:22 22° S 23:33:29 43° ESE 23:39:20 10° NE
H-2A R/B 4.4 23:32:47 13° SW 23:35:09 19° W 23:38:10 10° NW
Cosmos 2228 4.2 23:32:05 10° N 23:36:06 37° ENE 23:39:33 13° SE
Cosmos 1892 4.2 23:34:58 14° WSW 23:37:21 26° WNW 23:40:24 10° N
Meteor 1-21 Rocket 4.2 23:34:06 21° S 23:38:03 89° E 23:43:43 10° NNE
ALOS 2 4.1 23:42:15 16° SW 23:44:38 24° W 23:48:15 10° NW
Cosmos 1607 4.3 23:38:38 10° NW 23:45:07 72° NE 23:51:26 10° SE
In-Cosmos 22 Rocket 4.4 23:41:13 21° S 23:45:13 73° E 23:51:03 10° NNE
Cosmos 1869 3.3 23:43:17 10° N 23:47:00 66° ENE 23:49:12 23° SSE
Aureole 1 Rocket 3.4 23:48:39 19° SW 23:51:31 67° WNW 23:56:47 10° NNE
Cosmos 1937 Rocket 3.5 23:48:31 22° SSW 23:51:58 72° ESE 23:57:12 10° NNE
BlueWalker 3 1.8 23:49:23 10° WNW 23:53:09 89° N 23:56:54 10° ESE
